Flag for Belgium Weather past 2 weeks in Antwerp, Belgium

Now
54 °F

Scattered clouds.


Feels Like: 47 °F
Forecast: 43 / 48 °F
Wind: 28 mph from West

Location: Antwerp / Deurne

Current Time: Mar 31, 2015 at 6:27:03 PM

Latest Report: Mar 31, 2015 at 5:50 PM


Visibility: N/A

Pressure: 29.77 "Hg

Humidity: 41%

Dew point: 30 °F

Location of AntwerpLocation

Historic Weather in Antwerp — Graph

°F

Antwerp temperature yesterday

Maximum temperature yesterday: 50 °F (at 4:20 PM)
Minimum temperature yesterday: 45 °F (at 5:20 AM)
Average temperature yesterday: 47 °F

Past Weeks' High & Low Weather Summary

 TemperatureHumidityPressure
High63 °F (Mar 17, 2:50 PM)94% (Mar 28, 1:50 PM)30.42 "Hg (Mar 28, 1:50 PM)
Low28 °F (Mar 23, 1:50 AM)37% (Mar 17, 4:50 PM)29.33 "Hg (Mar 29, 5:20 PM)
Average44 °F77%30.00 "Hg
* Reported Mar 16 3:20 PM — Mar 31 4:50 PM, Antwerp, Weather by CustomWeather, © 2015

Note: Actual official high and low records may vary slightly from our data, if they occured in-between our weather recording intervals... More about our weather records

Advertising

Antwerp weather history for previous 24 hours

 ConditionsComfort  
Time TempWeatherWind HumidityBarometerVisibility
4:50 PM
Tue, Mar 31
54 °FScattered clouds.30 mph41%29.77 "HgN/A
4:20 PM54 °FScattered clouds.26 mph44%29.77 "HgN/A
3:50 PM52 °FScattered clouds.29 mph47%29.77 "HgN/A
3:20 PM54 °FScattered clouds.29 mph47%29.74 "HgN/A
2:50 PM52 °FScattered clouds.33 mph47%29.74 "HgN/A
2:20 PM54 °FScattered clouds.31 mph47%29.71 "HgN/A
1:50 PM54 °FScattered clouds.30 mph47%29.68 "HgN/A
1:20 PM52 °FScattered clouds.30 mph50%29.65 "HgN/A
12:50 PM54 °FScattered clouds.32 mph51%29.65 "HgN/A
12:20 PM54 °FScattered clouds.31 mph54%29.62 "HgN/A
11:50 AM54 °FScattered clouds.31 mph54%29.59 "HgN/A
11:20 AM54 °FScattered clouds.33 mph54%29.56 "HgN/A
10:50 AM54 °FScattered clouds.31 mph54%29.53 "HgN/A
10:20 AM54 °FScattered clouds.29 mph54%29.53 "HgN/A
9:50 AM52 °FPartly sunny.29 mph54%29.50 "HgN/A
9:20 AM52 °FPartly sunny.30 mph67%29.47 "HgN/A
8:50 AM52 °FScattered clouds.24 mph72%29.45 "HgN/A
8:20 AM52 °FPassing clouds.26 mph72%29.45 "HgN/A
7:50 AM52 °FPassing clouds.22 mph77%29.42 "HgN/A
7:20 AM52 °FSprinkles. Partly cloudy.29 mph82%29.39 "Hg4 mi
6:50 AM52 °FPartly cloudy.26 mph82%29.36 "HgN/A
6:20 AM52 °FPartly cloudy.25 mph82%29.39 "HgN/A
5:50 AM52 °FLight rain. Overcast.25 mph82%29.39 "HgN/A
5:20 AM50 °FSprinkles. Overcast.23 mph88%29.39 "Hg2 mi
4:50 AM52 °FSprinkles. Partly cloudy.24 mph82%29.39 "Hg2 mi
4:20 AM52 °FOvercast.21 mph82%29.36 "HgN/A
3:50 AM52 °FLight rain. Overcast.23 mph88%29.39 "HgN/A
3:20 AM52 °FSprinkles. Mostly cloudy.25 mph88%29.42 "HgN/A
2:50 AM52 °FSprinkles. Mostly cloudy.26 mph88%29.45 "HgN/A
2:20 AM50 °FLight rain. Low clouds.23 mph88%29.45 "Hg6 mi
1:50 AM48 °FLight rain. Mostly cloudy.23 mph94%29.47 "Hg4 mi
1:20 AM48 °FSprinkles. Mostly cloudy.20 mph87%29.50 "Hg4 mi
12:50 AM46 °FSprinkles. Mostly cloudy.20 mph87%29.53 "Hg3 mi
12:20 AM45 °FSprinkles. Mostly cloudy.17 mph87%29.59 "Hg4 mi
11:50 PM
Mon, Mar 30
45 °FSprinkles. Fog.15 mph87%29.65 "Hg2 mi
11:20 PM45 °FLight rain. Mostly cloudy.14 mph81%29.68 "Hg5 mi
10:50 PM45 °FLight rain. Passing clouds.13 mph81%29.71 "HgN/A
10:20 PM45 °FLight rain. Passing clouds.14 mph76%29.74 "HgN/A
9:50 PM48 °FClear.12 mph58%29.77 "Hg10 mi
9:20 PM48 °FPassing clouds.15 mph54%29.80 "HgN/A
8:50 PM48 °FSunny.12 mph58%29.83 "Hg10 mi
8:20 PM48 °FPartly sunny.10 mph58%29.83 "HgN/A
7:50 PM48 °FPassing clouds.8 mph54%29.86 "HgN/A
7:20 PM48 °FPassing clouds.7 mph50%29.86 "HgN/A
6:50 PM48 °FPassing clouds.9 mph46%29.86 "HgN/A
6:20 PM48 °FPassing clouds.14 mph43%29.89 "HgN/A
Weather by CustomWeather, © 2015

See weather overviewHow to use our weather pages